Flag for U.S.A. Weather past 2 weeks in Vancouver, Washington, U.S.A.

Now
50 °F

Overcast.


Feels Like: 49 °F
Forecast: 47 / 58 °F
Wind: 3 mph from South

Location: Vancouver - Pearson Airpark

Current Time: May 5, 2015 at 5:18:43 AM

Latest Report: May 5, 2015 at 4:53 AM


Visibility: 10 mi

Pressure: 30.06 "Hg

Humidity: 74%

Dew point: 42 °F

Location of VancouverLocation

Historic Weather in Vancouver — Graph

°F

Vancouver temperature yesterday

Maximum temperature yesterday: 63 °F (at 2:53 PM)
Minimum temperature yesterday: 46 °F (at 2:53 AM)
Average temperature yesterday: 55 °F

Past Weeks' High & Low Weather Summary

 TemperatureHumidityPressure
High80 °F (Apr 20, 4:53 PM)96% (Apr 25, 7:01 AM)30.34 "Hg (Apr 25, 7:01 AM)
Low40 °F (Apr 22, 6:53 AM)20% (Apr 20, 5:53 PM)29.77 "Hg (Apr 20, 6:53 PM)
Average55 °F63%30.05 "Hg
* Reported Apr 20 3:53 AM — May 5 3:53 AM, Vancouver, Weather by CustomWeather, © 2015

Note: Actual official high and low records may vary slightly from our data, if they occured in-between our weather recording intervals... More about our weather records

Advertising

Vancouver weather history for previous 24 hours

 ConditionsComfort  
Time TempWeatherWind HumidityBarometerVisibility
3:53 AM
Tue, May 5
50 °FClear.No wind74%30.05 "Hg10 mi
2:53 AM51 °FOvercast.No wind71%30.06 "Hg10 mi
1:53 AM52 °FOvercast.3 mph66%30.06 "Hg10 mi
12:53 AM53 °FMostly cloudy.No wind64%30.05 "Hg10 mi
11:53 PM
Mon, May 4
53 °FMostly cloudy.3 mph64%30.05 "Hg10 mi
10:53 PM53 °FOvercast.5 mph64%30.03 "Hg10 mi
9:53 PM54 °FOvercast.8 mph64%30.03 "Hg10 mi
8:53 PM56 °FOvercast.8 mph58%30.02 "Hg10 mi
7:53 PM59 °FOvercast.12 mph51%29.99 "Hg10 mi
6:53 PM61 °FMostly cloudy.13 mph50%29.98 "Hg10 mi
5:53 PM63 °FPartly sunny.7 mph48%29.96 "Hg10 mi
4:53 PM63 °FPartly sunny.No wind45%29.97 "Hg10 mi
3:53 PM63 °FPartly sunny.No wind43%29.98 "Hg10 mi
2:53 PM63 °FPartly sunny.5 mph47%29.99 "Hg10 mi
1:53 PM61 °FPartly sunny.8 mph50%30.00 "Hg10 mi
12:53 PM59 °FPartly sunny.No wind56%30.00 "Hg10 mi
11:53 AM57 °FOvercast.6 mph62%30.00 "Hg10 mi
10:53 AM57 °FPartly sunny.3 mph62%29.99 "Hg10 mi
9:53 AM56 °FSunny.No wind62%29.97 "Hg10 mi
8:53 AM53 °FPartly sunny.3 mph66%29.97 "Hg10 mi
7:53 AM51 °FSunny.No wind74%29.96 "Hg10 mi
6:53 AM48 °FClear.No wind80%29.95 "Hg10 mi
5:53 AM46 °FClear.No wind79%29.92 "Hg10 mi
Weather by CustomWeather, © 2015

See weather overviewHow to use our weather pages